Tracking 33165 objects as of 7-Feb-2026
HD Live streaming from Space Station
objects crossing your sky now

SL-12 R/B(2)

Track SL-12 R/B(2) now!


NORAD ID: 19094
Int'l Code: 1988-036E
Perigee: 35,471.8 km
Apogee: 35,644.4 km
Inclination: 10.4 °
Period: 1,424.1 minutes
Semi major axis: 41929 km
RCS: 2.2903 m2 (large)
Launch date: May 6, 1988
Source: Commonwealth of Independent States (former USSR) (CIS)
Launch site: TYURATAM MISSILE AND SPACE COMPLEX (TTMTR)

Note: This is a ROCKET BODY
Your satellite tracking list
Your tracking list is empty




NASA's NSSDC Master Catalog

Two Line Element Set (TLE):
1 19094U 88036E   26038.25240819 -.00000271  00000-0  00000+0 0  9998
2 19094  10.3546 323.4985 0020572 184.3992   3.2117  1.01118263120516
Source of the keplerian elements: AFSPC